This is the latest recevied weather packets stored in our database for station/object SR9WXY. If no packets are shown the sender has not sent any weather packets the latest 10 day(s).
| Time | Temp. | Humidity | Pressure | Rain* | Wind** | Luminosity | Snow |
|---|---|---|---|---|---|---|---|
| 1777970292 | 15° C | 49% | 878.7 hPa | - | - | - | - |
| 1777969990 | 15° C | 49% | 878.8 hPa | - | - | - | - |
| 1777969680 | 14.44° C | 49% | 878.6 hPa | - | - | - | - |
| 1777969381 | 13.89° C | 49% | 878.7 hPa | - | - | - | - |
| 1777969080 | 13.33° C | 49% | 878.8 hPa | - | - | - | - |
| 1777968780 | 13.33° C | 49% | 878.9 hPa | - | - | - | - |
| 1777968480 | 13.33° C | 49% | 878.8 hPa | - | - | - | - |
| 1777968180 | 12.78° C | 49% | 878.9 hPa | - | - | - | - |
| 1777967880 | 12.78° C | 49% | 878.8 hPa | - | - | - | - |
| 1777967581 | 12.78° C | 49% | 878.8 hPa | - | - | - | - |
| 1777967281 | 13.33° C | 49% | 878.8 hPa | - | - | - | - |
| 1777966981 | 13.33° C | 49% | 878.8 hPa | - | - | - | - |
| 1777966381 | 13.33° C | 48% | 879 hPa | - | - | - | - |
| 1777966081 | 13.33° C | 48% | 878.9 hPa | - | - | - | - |
| 1777965781 | 13.33° C | 48% | 878.9 hPa | - | - | - | - |
| 1777965481 | 13.89° C | 48% | 879 hPa | - | - | - | - |
| 1777965181 | 14.44° C | 48% | 879 hPa | - | - | - | - |
| 1777964879 | 14.44° C | 48% | 879 hPa | - | - | - | - |
| 1777964579 | 15° C | 48% | 879 hPa | - | - | - | - |
| 1777964279 | 15° C | 48% | 879 hPa | - | - | - | - |
| 1777963979 | 14.44° C | 49% | 879 hPa | - | - | - | - |
| 1777963679 | 14.44° C | 49% | 879.1 hPa | - | - | - | - |
| 1777963377 | 13.89° C | 49% | 879.1 hPa | - | - | - | - |
| 1777963077 | 13.89° C | 48% | 879.1 hPa | - | - | - | - |
| 1777962777 | 13.33° C | 49% | 879.1 hPa | - | - | - | - |
* Rain since midnight (hover to see other rain measurements)
** Current wind speed in m/s (hover to see current wind gust speed)